• In Uzbekistan
  • List of Countries
  • For 7 days
  • Water Temperature
  • Satellite Maps
  • Weather Map
  • Weather Widgets
  • user-avatar
    Login

    Hourly Weather Korçe

    Today, 26 April, Wednesday

    Time Temperature Precipitation Wind Pressure Humidity
    00:00 +3°C° 0 mm 2 mps 667 mmHg 91%
    01:00 +3°C° 0 mm 2 mps 667 mmHg 89%
    02:00 +3°C° 0 mm 1 mps 666 mmHg 86%
    03:00 +3°C° 0 mm 1 mps 666 mmHg 83%
    04:00 +3°C° 0 mm 1 mps 666 mmHg 80%
    05:00 +5°C° 0 mm 1 mps 667 mmHg 71%
    06:00 +7°C° 0 mm 1 mps 667 mmHg 62%
    07:00 +10°C° 0 mm 1 mps 668 mmHg 53%
    08:00 +12°C° 0 mm 2 mps 669 mmHg 46%
    09:00 +14°C° 0 mm 2 mps 669 mmHg 38%
    10:00 +15°C° 0 mm 2 mps 670 mmHg 31%
    11:00 +16°C° 0 mm 2 mps 670 mmHg 31%
    12:00 +17°C° 0 mm 3 mps 670 mmHg 30%
    13:00 +18°C° 0 mm 3 mps 670 mmHg 30%
    14:00 +17°C° 0 mm 3 mps 670 mmHg 33%
    15:00 +17°C° 0 mm 3 mps 669 mmHg 35%
    16:00 +16°C° 0 mm 2 mps 669 mmHg 38%
    17:00 +13°C° 0 mm 2 mps 668 mmHg 51%
    18:00 +9°C° 0 mm 2 mps 668 mmHg 63%
    19:00 +7°C° 0 mm 1 mps 667 mmHg 75%
    20:00 +7°C° 0 mm 1 mps 667 mmHg 77%
    21:00 +6°C° 0 mm 1 mps 667 mmHg 79%
    22:00 +6°C° 0 mm 1 mps 667 mmHg 81%
    23:00 +6°C° 0 mm 1 mps 667 mmHg 80%

    Tomorrow, 27 April, Thursday

    Time Temperature Precipitation Wind Pressure Humidity
    00:00 +5°C° 0 mm 1 mps 667 mmHg 80%
    01:00 +5°C° 0 mm 1 mps 666 mmHg 79%
    02:00 +5°C° 0 mm 1 mps 666 mmHg 76%
    03:00 +4°C° 0 mm 1 mps 666 mmHg 72%
    04:00 +4°C° 0 mm 1 mps 666 mmHg 69%
    05:00 +7°C° 0 mm 1 mps 666 mmHg 60%
    06:00 +10°C° 0 mm 1 mps 667 mmHg 52%
    07:00 +12°C° 0 mm 1 mps 668 mmHg 43%
    08:00 +14°C° 0 mm 1 mps 669 mmHg 39%
    09:00 +16°C° 0 mm 1 mps 669 mmHg 36%
    10:00 +19°C° 0 mm 1 mps 670 mmHg 33%
    11:00 +19°C° 0 mm 2 mps 670 mmHg 33%
    12:00 +19°C° 0 mm 2 mps 670 mmHg 33%
    13:00 +20°C° 0 mm 2 mps 670 mmHg 33%
    14:00 +19°C° 0 mm 2 mps 669 mmHg 35%
    15:00 +19°C° 0 mm 2 mps 669 mmHg 37%
    16:00 +18°C° 0 mm 2 mps 669 mmHg 39%
    17:00 +15°C° 0 mm 2 mps 668 mmHg 51%
    18:00 +12°C° 0 mm 1 mps 667 mmHg 63%
    19:00 +9°C° 0 mm 1 mps 666 mmHg 74%
    20:00 +9°C° 0 mm 1 mps 666 mmHg 75%
    21:00 +8°C° 0 mm 1 mps 666 mmHg 75%
    22:00 +8°C° 0 mm 1 mps 666 mmHg 75%
    23:00 +8°C° 0 mm 1 mps 666 mmHg 72%

    Day after tomorrow, 28 April, Friday

    Time Temperature Precipitation Wind Pressure Humidity
    00:00 +6°C° 0 mm 2 mps 666 mmHg 69%
    01:00 +6°C° 0 mm 2 mps 666 mmHg 66%
    02:00 +6°C° 0 mm 2 mps 666 mmHg 63%
    03:00 +6°C° 0 mm 2 mps 666 mmHg 59%
    04:00 +5°C° 0 mm 2 mps 665 mmHg 56%
    05:00 +8°C° 0 mm 2 mps 666 mmHg 51%
    06:00 +10°C° 0 mm 2 mps 667 mmHg 46%
    07:00 +13°C° 0 mm 2 mps 667 mmHg 41%
    08:00 +15°C° 0 mm 2 mps 668 mmHg 38%
    09:00 +17°C° 0 mm 2 mps 668 mmHg 35%
    10:00 +19°C° 0 mm 2 mps 669 mmHg 32%
    11:00 +20°C° 0 mm 2 mps 669 mmHg 33%
    12:00 +20°C° 0 mm 3 mps 669 mmHg 33%
    13:00 +21°C° 0 mm 3 mps 669 mmHg 34%
    14:00 +20°C° 0 mm 3 mps 668 mmHg 37%
    15:00 +19°C° 0 mm 3 mps 668 mmHg 40%
    16:00 +18°C° 0 mm 2 mps 667 mmHg 44%
    17:00 +16°C° 0 mm 2 mps 667 mmHg 51%
    18:00 +14°C° 0 mm 2 mps 666 mmHg 59%
    19:00 +10°C° 0 mm 2 mps 666 mmHg 67%
    20:00 +10°C° 0 mm 2 mps 666 mmHg 67%
    21:00 +10°C° 0 mm 2 mps 666 mmHg 67%
    22:00 +9°C° 0 mm 2 mps 666 mmHg 67%
    23:00 +9°C° 0 mm 2 mps 665 mmHg 66%

    29 April, Saturday

    Time Temperature Precipitation Wind Pressure Humidity
    00:00 +8°C° 0 mm 2 mps 665 mmHg 64%
    01:00 +8°C° 0 mm 2 mps 665 mmHg 63%
    02:00 +8°C° 0 mm 2 mps 664 mmHg 62%
    03:00 +8°C° 0 mm 2 mps 664 mmHg 61%
    04:00 +8°C° 0 mm 2 mps 664 mmHg 60%
    05:00 +10°C° 0 mm 2 mps 664 mmHg 56%
    06:00 +13°C° 0 mm 2 mps 665 mmHg 53%
    07:00 +14°C° 0 mm 2 mps 665 mmHg 49%
    08:00 +16°C° 0 mm 3 mps 666 mmHg 45%
    09:00 +18°C° 0 mm 3 mps 666 mmHg 40%
    10:00 +19°C° 0 mm 3 mps 666 mmHg 36%
    11:00 +20°C° 0 mm 4 mps 666 mmHg 36%
    12:00 +20°C° 0 mm 4 mps 666 mmHg 35%
    13:00 +20°C° 0 mm 4 mps 666 mmHg 35%
    14:00 +20°C° 0 mm 4 mps 665 mmHg 38%
    15:00 +19°C° 0 mm 4 mps 665 mmHg 41%
    16:00 +18°C° 0 mm 3 mps 665 mmHg 44%
    17:00 +14°C° 0 mm 3 mps 664 mmHg 55%
    18:00 +13°C° 0 mm 2 mps 664 mmHg 66%
    19:00 +10°C° 0 mm 1 mps 663 mmHg 77%
    20:00 +10°C° 0 mm 1 mps 663 mmHg 78%
    21:00 +10°C° 0 mm 1 mps 663 mmHg 79%
    22:00 +10°C° 0 mm 1 mps 663 mmHg 79%
    23:00 +9°C° 0 mm 1 mps 663 mmHg 80%

    30 April, Sunday

    Time Temperature Precipitation Wind Pressure Humidity
    00:00 +8°C° 0 mm 1 mps 663 mmHg 81%
    01:00 +7°C° 0 mm 1 mps 662 mmHg 83%
    02:00 +8°C° 0 mm 1 mps 662 mmHg 81%
    03:00 +8°C° 0 mm 1 mps 662 mmHg 80%
    04:00 +8°C° 0 mm 1 mps 662 mmHg 78%
    05:00 +10°C° 0 mm 1 mps 663 mmHg 73%
    06:00 +11°C° 0 mm 1 mps 664 mmHg 68%
    07:00 +13°C° 0 mm 1 mps 665 mmHg 63%
    08:00 +15°C° 0 mm 1 mps 665 mmHg 55%
    09:00 +17°C° 0 mm 2 mps 666 mmHg 48%
    10:00 +18°C° 0 mm 2 mps 666 mmHg 41%
    11:00 +19°C° 0.1 mm 2 mps 666 mmHg 42%
    12:00 +19°C° 0.1 mm 2 mps 665 mmHg 43%
    13:00 +19°C° 0.1 mm 2 mps 665 mmHg 44%
    14:00 +18°C° 0.3 mm 2 mps 665 mmHg 49%
    15:00 +18°C° 0.3 mm 2 mps 665 mmHg 55%
    16:00 +17°C° 0.3 mm 2 mps 664 mmHg 60%
    17:00 +15°C° 0.5 mm 2 mps 664 mmHg 68%
    18:00 +13°C° 0.5 mm 2 mps 664 mmHg 76%
    19:00 +12°C° 0.5 mm 2 mps 664 mmHg 84%
    20:00 +10°C° 0.4 mm 2 mps 664 mmHg 86%
    21:00 +10°C° 0.4 mm 2 mps 664 mmHg 88%
    22:00 +9°C° 0.4 mm 2 mps 664 mmHg 91%
    23:00 +9°C° 0.3 mm 2 mps 664 mmHg 91%

    1 May, Monday

    Time Temperature Precipitation Wind Pressure Humidity
    00:00 +9°C° 0.3 mm 2 mps 664 mmHg 92%
    01:00 +10°C° 0.3 mm 1 mps 664 mmHg 92%
    02:00 +10°C° 0.3 mm 1 mps 664 mmHg 92%
    03:00 +9°C° 0.3 mm 2 mps 664 mmHg 92%
    04:00 +8°C° 0.3 mm 2 mps 664 mmHg 92%
    05:00 +9°C° 0.1 mm 2 mps 664 mmHg 88%
    06:00 +10°C° 0.1 mm 2 mps 664 mmHg 84%
    07:00 +12°C° 0.1 mm 2 mps 665 mmHg 80%
    08:00 +14°C° 0 mm 2 mps 665 mmHg 68%
    09:00 +16°C° 0 mm 1 mps 666 mmHg 57%
    10:00 +19°C° 0 mm 1 mps 667 mmHg 45%
    11:00 +19°C° 0 mm 1 mps 667 mmHg 45%
    12:00 +20°C° 0 mm 1 mps 667 mmHg 44%
    13:00 +20°C° 0 mm 1 mps 667 mmHg 44%
    14:00 +19°C° 0.1 mm 2 mps 666 mmHg 46%
    15:00 +19°C° 0.1 mm 2 mps 666 mmHg 49%
    16:00 +18°C° 0.1 mm 2 mps 666 mmHg 52%
    17:00 +16°C° 0.2 mm 2 mps 666 mmHg 62%
    18:00 +14°C° 0.2 mm 1 mps 665 mmHg 73%
    19:00 +11°C° 0.2 mm 1 mps 665 mmHg 84%
    20:00 +11°C° 0.1 mm 1 mps 665 mmHg 85%
    21:00 +10°C° 0.1 mm 1 mps 665 mmHg 87%
    22:00 +9°C° 0.1 mm 1 mps 665 mmHg 88%
    23:00 +9°C° 0 mm 1 mps 665 mmHg 88%
    Show more